Time,TemperatureF,DewpointF,PressureIn,WindDirection,WindDirectionDegrees,WindSpeedMPH,WindSpeedGustMPH,Humidity,HourlyPrecipIn,Conditions,Clouds,dailyrainin,SoftwareType,DateUTC
2013-03-25 00:01:00,44.6,22.3,-100.00,NNE,23,0.0,0.0,41,0.00,,,0.00,meteohub,2013-03-25 05:01:00,
2013-03-25 00:03:00,44.4,22.1,-100.00,NNE,23,0.0,0.0,41,0.00,,,0.00,meteohub,2013-03-25 05:03:00,
2013-03-25 00:05:00,44.4,22.8,-100.00,NNE,23,0.0,0.0,42,0.00,,,0.00,meteohub,2013-03-25 05:05:00,
2013-03-25 00:07:00,44.4,22.8,-100.00,NNE,23,0.0,0.0,42,0.00,,,0.00,meteohub,2013-03-25 05:07:00,
2013-03-25 00:09:00,44.4,22.8,-100.00,NNE,23,0.0,0.0,42,0.00,,,0.00,meteohub,2013-03-25 05:09:00,
2013-03-25 00:14:00,44.2,22.6,-100.00,NNE,23,0.0,0.0,42,0.00,,,0.00,meteohub,2013-03-25 05:14:00,
2013-03-25 00:16:00,44.2,22.6,-100.00,NNE,23,0.0,0.0,42,0.00,,,0.00,meteohub,2013-03-25 05:16:00,
2013-03-25 00:17:00,44.2,22.6,-100.00,NNE,23,0.0,0.0,42,0.00,,,0.00,meteohub,2013-03-25 05:17:00,
2013-03-25 00:18:00,44.1,22.5,-100.00,NNE,23,0.0,0.0,42,0.00,,,0.00,meteohub,2013-03-25 05:18:00,
2013-03-25 00:22:00,43.9,22.3,-100.00,NNE,23,0.0,0.0,42,0.00,,,0.00,meteohub,2013-03-25 05:22:00,
2013-03-25 00:24:00,43.9,22.3,-100.00,NNE,23,0.0,0.0,42,0.00,,,0.00,meteohub,2013-03-25 05:24:00,
2013-03-25 00:26:00,43.9,22.3,-100.00,NNE,23,0.0,0.0,42,0.00,,,0.00,meteohub,2013-03-25 05:26:00,
2013-03-25 00:28:00,43.9,22.8,-100.00,NNE,23,2.0,0.0,43,0.00,,,0.00,meteohub,2013-03-25 05:28:00,
2013-03-25 00:30:00,43.7,22.1,-100.00,NNE,23,0.0,0.0,42,0.00,,,0.00,meteohub,2013-03-25 05:30:00,
2013-03-25 00:32:00,43.7,22.1,-100.00,NNE,23,1.0,2.0,42,0.00,,,0.00,meteohub,2013-03-25 05:32:00,
2013-03-25 00:34:00,43.7,22.1,-100.00,NNE,23,4.0,4.0,42,0.00,,,0.00,meteohub,2013-03-25 05:34:00,
2013-03-25 00:40:00,43.5,21.9,-100.00,NE,45,0.0,4.0,42,0.00,,,0.00,meteohub,2013-03-25 05:40:00,
2013-03-25 00:42:00,43.5,22.5,-100.00,NE,45,0.0,4.0,43,0.00,,,0.00,meteohub,2013-03-25 05:42:00,
2013-03-25 00:44:00,43.5,22.5,-100.00,NNE,23,0.0,4.0,43,0.00,,,0.00,meteohub,2013-03-25 05:44:00,
2013-03-25 00:47:00,43.3,22.3,-100.00,NE,45,0.0,4.0,43,0.00,,,0.00,meteohub,2013-03-25 05:47:00,
2013-03-25 00:50:00,43.3,22.3,-100.00,North,0,0.0,2.0,43,0.00,,,0.00,meteohub,2013-03-25 05:50:00,
2013-03-25 00:52:00,43.3,22.3,-100.00,ENE,68,0.0,2.0,43,0.00,,,0.00,meteohub,2013-03-25 05:52:00,
2013-03-25 00:58:00,43.3,22.3,-100.00,NNE,23,2.0,2.0,43,0.00,,,0.00,meteohub,2013-03-25 05:58:00,
2013-03-25 01:02:00,43.3,22.3,-100.00,NNE,23,2.0,2.0,43,0.00,,,0.00,meteohub,2013-03-25 06:02:00,
2013-03-25 01:04:00,43.3,22.3,-100.00,NNE,23,2.0,2.0,43,0.00,,,0.00,meteohub,2013-03-25 06:04:00,
2013-03-25 01:06:00,43.2,22.1,-100.00,West,270,0.0,2.0,43,0.00,,,0.00,meteohub,2013-03-25 06:06:00,
2013-03-25 01:10:00,43.2,22.1,-100.00,NNE,23,2.0,2.0,43,0.00,,,0.00,meteohub,2013-03-25 06:10:00,
2013-03-25 01:12:00,43.2,22.1,-100.00,NNE,23,0.0,2.0,43,0.00,,,0.00,meteohub,2013-03-25 06:12:00,
2013-03-25 01:14:00,43.2,22.1,-100.00,NNE,23,1.0,2.0,43,0.00,,,0.00,meteohub,2013-03-25 06:14:00,
2013-03-25 01:20:00,43.0,22.6,-100.00,NNW,338,2.0,2.0,44,0.00,,,0.00,meteohub,2013-03-25 06:20:00,
2013-03-25 01:22:00,43.0,22.6,-100.00,North,0,0.0,2.0,44,0.00,,,0.00,meteohub,2013-03-25 06:22:00,
2013-03-25 01:24:00,43.0,22.6,-100.00,North,0,0.0,2.0,44,0.00,,,0.00,meteohub,2013-03-25 06:24:00,
2013-03-25 01:26:00,43.0,22.6,-100.00,NNE,23,2.0,2.0,44,0.00,,,0.00,meteohub,2013-03-25 06:26:00,
2013-03-25 01:31:00,43.0,22.6,-100.00,ENE,68,0.0,2.0,44,0.00,,,0.00,meteohub,2013-03-25 06:31:00,
2013-03-25 01:32:00,43.0,22.6,-100.00,ENE,68,0.0,2.0,44,0.00,,,0.00,meteohub,2013-03-25 06:32:00,
2013-03-25 01:33:00,43.0,22.6,-100.00,ENE,68,0.0,2.0,44,0.00,,,0.00,meteohub,2013-03-25 06:33:00,
2013-03-25 01:37:00,43.0,22.6,-100.00,NE,45,0.0,2.0,44,0.00,,,0.00,meteohub,2013-03-25 06:37:00,
2013-03-25 01:39:00,43.0,22.6,-100.00,NNE,23,1.0,2.0,44,0.00,,,0.00,meteohub,2013-03-25 06:39:00,
2013-03-25 01:43:00,42.6,22.3,-100.00,NE,45,0.0,2.0,44,0.00,,,0.00,meteohub,2013-03-25 06:43:00,
2013-03-25 01:45:00,42.6,22.3,-100.00,NE,45,0.0,2.0,44,0.00,,,0.00,meteohub,2013-03-25 06:45:00,
2013-03-25 01:47:00,42.6,22.3,-100.00,NNE,23,1.0,1.0,44,0.00,,,0.00,meteohub,2013-03-25 06:47:00,
2013-03-25 01:53:00,42.6,22.8,-100.00,NNE,23,0.0,1.0,45,0.00,,,0.00,meteohub,2013-03-25 06:53:00,
2013-03-25 01:55:00,42.6,22.8,-100.00,NE,45,0.0,1.0,45,0.00,,,0.00,meteohub,2013-03-25 06:55:00,
2013-03-25 01:59:00,42.6,22.8,-100.00,NE,45,0.0,1.0,45,0.00,,,0.00,meteohub,2013-03-25 06:59:00,
2013-03-25 02:01:00,42.6,22.8,-100.00,NNE,23,0.0,1.0,45,0.00,,,0.00,meteohub,2013-03-25 07:01:00,
2013-03-25 02:03:00,42.6,23.4,-100.00,North,0,0.0,1.0,46,0.00,,,0.00,meteohub,2013-03-25 07:03:00,
2013-03-25 02:07:00,42.4,23.2,-100.00,North,0,0.0,0.0,46,0.00,,,0.00,meteohub,2013-03-25 07:07:00,
2013-03-25 02:13:00,42.4,23.2,-100.00,NE,45,0.0,0.0,46,0.00,,,0.00,meteohub,2013-03-25 07:13:00,
2013-03-25 02:15:00,42.3,23.0,-100.00,NE,45,0.0,0.0,46,0.00,,,0.00,meteohub,2013-03-25 07:15:00,
2013-03-25 02:17:00,42.3,23.0,-100.00,NE,45,0.0,0.0,46,0.00,,,0.00,meteohub,2013-03-25 07:17:00,
2013-03-25 02:19:00,42.1,23.4,-100.00,NNE,23,0.0,0.0,47,0.00,,,0.00,meteohub,2013-03-25 07:19:00,
2013-03-25 02:21:00,42.1,23.4,-100.00,West,270,0.0,0.0,47,0.00,,,0.00,meteohub,2013-03-25 07:21:00,
2013-03-25 02:27:00,41.9,23.2,-100.00,NW,315,0.0,0.0,47,0.00,,,0.00,meteohub,2013-03-25 07:27:00,
2013-03-25 02:29:00,41.9,23.2,-100.00,NW,315,0.0,0.0,47,0.00,,,0.00,meteohub,2013-03-25 07:29:00,
2013-03-25 02:31:00,41.9,23.2,-100.00,NNE,23,0.0,0.0,47,0.00,,,0.00,meteohub,2013-03-25 07:31:00,
2013-03-25 02:37:00,41.7,23.5,-100.00,West,270,0.0,0.0,48,0.00,,,0.00,meteohub,2013-03-25 07:37:00,
2013-03-25 02:39:00,41.5,23.4,-100.00,North,0,0.0,0.0,48,0.00,,,0.00,meteohub,2013-03-25 07:39:00,
2013-03-25 02:43:00,41.5,22.8,-100.00,WNW,293,0.0,0.0,47,0.00,,,0.00,meteohub,2013-03-25 07:43:00,
2013-03-25 02:45:00,41.5,23.4,-100.00,NE,45,0.0,0.0,48,0.00,,,0.00,meteohub,2013-03-25 07:45:00,
2013-03-25 02:47:00,41.5,23.4,-100.00,NE,45,0.0,0.0,48,0.00,,,0.00,meteohub,2013-03-25 07:47:00,
2013-03-25 02:49:00,41.4,23.2,-100.00,North,0,0.0,0.0,48,0.00,,,0.00,meteohub,2013-03-25 07:49:00,
2013-03-25 02:51:00,41.2,23.0,-100.00,NE,45,0.0,0.0,48,0.00,,,0.00,meteohub,2013-03-25 07:51:00,
2013-03-25 02:53:00,41.2,22.5,-100.00,NNE,23,0.0,0.0,47,0.00,,,0.00,meteohub,2013-03-25 07:53:00,
2013-03-25 02:55:00,41.2,23.0,-100.00,NNE,23,1.0,0.0,48,0.00,,,0.00,meteohub,2013-03-25 07:55:00,
2013-03-25 02:57:00,41.2,23.0,-100.00,NNE,23,0.0,0.0,48,0.00,,,0.00,meteohub,2013-03-25 07:57:00,
2013-03-25 02:59:00,41.2,23.0,-100.00,NNE,23,0.0,0.0,48,0.00,,,0.00,meteohub,2013-03-25 07:59:00,
2013-03-25 03:06:00,41.0,22.8,-100.00,NNE,23,0.0,1.0,48,0.00,,,0.00,meteohub,2013-03-25 08:06:00,
2013-03-25 03:08:00,41.0,22.8,-100.00,NNE,23,2.0,2.0,48,0.00,,,0.00,meteohub,2013-03-25 08:08:00,
2013-03-25 03:12:00,40.8,22.6,-100.00,NNE,23,0.0,2.0,48,0.00,,,0.00,meteohub,2013-03-25 08:12:00,
2013-03-25 03:14:00,40.8,22.6,-100.00,NNE,23,0.0,2.0,48,0.00,,,0.00,meteohub,2013-03-25 08:14:00,
2013-03-25 03:16:00,40.8,22.6,-100.00,North,0,0.0,2.0,48,0.00,,,0.00,meteohub,2013-03-25 08:16:00,
2013-03-25 03:20:00,40.8,22.6,-100.00,WSW,248,0.0,2.0,48,0.00,,,0.00,meteohub,2013-03-25 08:20:00,
2013-03-25 03:22:00,40.8,22.6,-100.00,South,180,0.0,2.0,48,0.00,,,0.00,meteohub,2013-03-25 08:22:00,
2013-03-25 03:24:00,40.6,22.5,-100.00,South,180,0.0,2.0,48,0.00,,,0.00,meteohub,2013-03-25 08:24:00,
2013-03-25 03:28:00,40.6,22.5,-100.00,ENE,68,1.0,0.0,48,0.00,,,0.00,meteohub,2013-03-25 08:28:00,
2013-03-25 03:32:00,40.6,22.5,-100.00,NE,45,1.0,0.0,48,0.00,,,0.00,meteohub,2013-03-25 08:32:00,
2013-03-25 03:38:00,40.6,22.5,-100.00,SE,135,0.0,1.0,48,0.00,,,0.00,meteohub,2013-03-25 08:38:00,
2013-03-25 03:42:00,40.5,22.3,-100.00,SE,135,0.0,1.0,48,0.00,,,0.00,meteohub,2013-03-25 08:42:00,
2013-03-25 03:44:00,40.5,22.8,-100.00,SE,135,0.0,1.0,49,0.00,,,0.00,meteohub,2013-03-25 08:44:00,
2013-03-25 03:46:00,40.3,22.6,-100.00,SE,135,0.0,1.0,49,0.00,,,0.00,meteohub,2013-03-25 08:46:00,
2013-03-25 03:48:00,40.3,22.6,-100.00,SSE,158,0.0,1.0,49,0.00,,,0.00,meteohub,2013-03-25 08:48:00,
2013-03-25 03:50:00,40.3,22.1,-100.00,SSE,158,0.0,0.0,48,0.00,,,0.00,meteohub,2013-03-25 08:50:00,
2013-03-25 03:52:00,40.3,22.6,-100.00,West,270,0.0,0.0,49,0.00,,,0.00,meteohub,2013-03-25 08:52:00,
2013-03-25 03:56:00,40.1,22.5,-100.00,West,270,0.0,0.0,49,0.00,,,0.00,meteohub,2013-03-25 08:56:00,
2013-03-25 03:58:00,40.1,22.5,-100.00,West,270,0.0,0.0,49,0.00,,,0.00,meteohub,2013-03-25 08:58:00,
2013-03-25 04:02:00,39.9,22.3,-100.00,West,270,0.0,0.0,49,0.00,,,0.00,meteohub,2013-03-25 09:02:00,
2013-03-25 04:04:00,39.9,22.3,-100.00,SSE,158,0.0,0.0,49,0.00,,,0.00,meteohub,2013-03-25 09:04:00,
2013-03-25 04:08:00,39.9,22.3,-100.00,NNE,23,0.0,0.0,49,0.00,,,0.00,meteohub,2013-03-25 09:08:00,
2013-03-25 04:12:00,39.9,22.3,-100.00,NNE,23,1.0,0.0,49,0.00,,,0.00,meteohub,2013-03-25 09:12:00,
2013-03-25 04:14:00,39.9,22.3,-100.00,North,0,0.0,0.0,49,0.00,,,0.00,meteohub,2013-03-25 09:14:00,
2013-03-25 04:16:00,39.9,22.8,-100.00,North,0,0.0,1.0,50,0.00,,,0.00,meteohub,2013-03-25 09:16:00,
2013-03-25 04:18:00,39.7,22.6,-100.00,North,0,4.0,4.0,50,0.00,,,0.00,meteohub,2013-03-25 09:18:00,
2013-03-25 04:20:00,39.7,22.1,-100.00,NNE,23,0.0,4.0,49,0.00,,,0.00,meteohub,2013-03-25 09:20:00,
2013-03-25 04:24:00,39.6,21.9,-100.00,NNE,23,0.0,4.0,49,0.00,,,0.00,meteohub,2013-03-25 09:24:00,
2013-03-25 04:27:00,39.7,22.1,-100.00,NNE,23,0.0,4.0,49,0.00,,,0.00,meteohub,2013-03-25 09:27:00,
2013-03-25 04:29:00,39.6,21.9,-100.00,NE,45,3.0,4.0,49,0.00,,,0.00,meteohub,2013-03-25 09:29:00,
2013-03-25 04:31:00,39.6,21.6,-100.00,NE,45,2.0,4.0,48,0.00,,,0.00,meteohub,2013-03-25 09:31:00,
2013-03-25 04:33:00,39.6,21.6,-100.00,NE,45,0.0,4.0,48,0.00,,,0.00,meteohub,2013-03-25 09:33:00,
2013-03-25 04:37:00,39.6,21.6,-100.00,NNE,23,0.0,3.0,48,0.00,,,0.00,meteohub,2013-03-25 09:37:00,
2013-03-25 04:41:00,39.6,21.6,-100.00,NNE,23,4.0,4.0,48,0.00,,,0.00,meteohub,2013-03-25 09:41:00,
2013-03-25 04:47:00,39.6,21.6,-100.00,NE,45,0.0,4.0,48,0.00,,,0.00,meteohub,2013-03-25 09:47:00,
2013-03-25 04:49:00,39.6,21.6,-100.00,NNE,23,0.0,4.0,48,0.00,,,0.00,meteohub,2013-03-25 09:49:00,
2013-03-25 04:51:00,39.6,21.6,-100.00,NNE,23,0.0,4.0,48,0.00,,,0.00,meteohub,2013-03-25 09:51:00,
2013-03-25 04:53:00,39.6,21.6,-100.00,NE,45,1.0,4.0,48,0.00,,,0.00,meteohub,2013-03-25 09:53:00,
2013-03-25 04:57:00,39.4,20.8,-100.00,NE,45,0.0,4.0,47,0.00,,,0.00,meteohub,2013-03-25 09:57:00,
2013-03-25 05:01:00,39.4,20.8,-100.00,NNE,23,0.0,4.0,47,0.00,,,0.00,meteohub,2013-03-25 10:01:00,
2013-03-25 05:03:00,39.4,20.8,-100.00,North,0,0.0,4.0,47,0.00,,,0.00,meteohub,2013-03-25 10:03:00,
2013-03-25 05:05:00,39.4,20.8,-100.00,ENE,68,0.0,4.0,47,0.00,,,0.00,meteohub,2013-03-25 10:05:00,
2013-03-25 05:09:00,39.4,20.8,-100.00,NNW,338,6.0,6.0,47,0.00,,,0.00,meteohub,2013-03-25 10:09:00,
2013-03-25 05:11:00,39.4,20.8,-100.00,NNE,23,1.0,6.0,47,0.00,,,0.00,meteohub,2013-03-25 10:11:00,
2013-03-25 05:13:00,39.4,20.8,-100.00,North,0,2.0,6.0,47,0.00,,,0.00,meteohub,2013-03-25 10:13:00,
2013-03-25 05:17:00,39.4,20.8,-100.00,NNE,23,1.0,6.0,47,0.00,,,0.00,meteohub,2013-03-25 10:17:00,
2013-03-25 05:23:00,39.0,20.5,-100.00,ENE,68,2.0,6.0,47,0.00,,,0.00,meteohub,2013-03-25 10:23:00,
2013-03-25 05:25:00,39.0,20.5,-100.00,ENE,68,2.0,6.0,47,0.00,,,0.00,meteohub,2013-03-25 10:25:00,
2013-03-25 05:27:00,39.0,20.5,-100.00,NE,45,6.0,6.0,47,0.00,,,0.00,meteohub,2013-03-25 10:27:00,
2013-03-25 05:32:00,39.0,20.5,-100.00,NE,45,2.0,6.0,47,0.00,,,0.00,meteohub,2013-03-25 10:32:00,
2013-03-25 05:34:00,39.0,20.5,-100.00,North,0,3.0,6.0,47,0.00,,,0.00,meteohub,2013-03-25 10:34:00,
2013-03-25 05:38:00,39.0,20.5,-100.00,NNE,23,2.0,6.0,47,0.00,,,0.00,meteohub,2013-03-25 10:38:00,
2013-03-25 05:40:00,38.8,20.3,-100.00,NNE,23,4.0,6.0,47,0.00,,,0.00,meteohub,2013-03-25 10:40:00,
2013-03-25 05:42:00,38.8,20.3,-100.00,NE,45,2.0,6.0,47,0.00,,,0.00,meteohub,2013-03-25 10:42:00,
2013-03-25 05:46:00,38.8,19.8,-100.00,North,0,2.0,4.0,46,0.00,,,0.00,meteohub,2013-03-25 10:46:00,
2013-03-25 05:50:00,38.7,19.6,-100.00,North,0,1.0,4.0,46,0.00,,,0.00,meteohub,2013-03-25 10:50:00,
2013-03-25 05:52:00,38.5,19.6,-100.00,WNW,293,0.0,4.0,46,0.00,,,0.00,meteohub,2013-03-25 10:52:00,
2013-03-25 05:56:00,38.5,19.6,-100.00,NE,45,2.0,4.0,46,0.00,,,0.00,meteohub,2013-03-25 10:56:00,
2013-03-25 05:58:00,38.5,19.6,-100.00,North,0,0.0,4.0,46,0.00,,,0.00,meteohub,2013-03-25 10:58:00,
2013-03-25 06:00:00,38.3,19.4,-100.00,NNE,23,1.0,2.0,46,0.00,,,0.00,meteohub,2013-03-25 11:00:00,
2013-03-25 06:04:00,38.3,19.8,-100.00,NNE,23,1.0,2.0,47,0.00,,,0.00,meteohub,2013-03-25 11:04:00,
2013-03-25 06:08:00,38.3,19.8,-100.00,NNE,23,4.0,4.0,47,0.00,,,0.00,meteohub,2013-03-25 11:08:00,
2013-03-25 06:14:00,38.1,19.6,-100.00,NE,45,1.0,4.0,47,0.00,,,0.00,meteohub,2013-03-25 11:14:00,
2013-03-25 06:17:00,38.1,19.2,-100.00,NE,45,1.0,4.0,46,0.00,,,0.00,meteohub,2013-03-25 11:17:00,
2013-03-25 06:21:00,37.9,19.0,-100.00,NE,45,1.0,4.0,46,0.00,,,0.00,meteohub,2013-03-25 11:21:00,
2013-03-25 06:23:00,37.9,19.0,-100.00,NE,45,4.0,4.0,46,0.00,,,0.00,meteohub,2013-03-25 11:23:00,
2013-03-25 06:29:00,37.9,19.0,-100.00,NE,45,2.0,4.0,46,0.00,,,0.00,meteohub,2013-03-25 11:29:00,
2013-03-25 06:32:00,37.9,19.6,-100.00,NNE,23,7.0,7.0,47,0.00,,,0.00,meteohub,2013-03-25 11:32:00,
2013-03-25 06:33:00,37.8,19.4,-100.00,North,0,2.0,4.0,47,0.00,,,0.00,meteohub,2013-03-25 11:33:00,
2013-03-25 06:35:00,37.8,19.4,-100.00,NNE,23,6.0,7.0,47,0.00,,,0.00,meteohub,2013-03-25 11:35:00,
2013-03-25 06:37:00,37.8,19.4,-100.00,NNE,23,0.0,7.0,47,0.00,,,0.00,meteohub,2013-03-25 11:37:00,
2013-03-25 06:41:00,37.6,19.2,-100.00,NE,45,5.0,7.0,47,0.00,,,0.00,meteohub,2013-03-25 11:41:00,
2013-03-25 06:43:00,37.6,19.2,-100.00,NNE,23,0.0,7.0,47,0.00,,,0.00,meteohub,2013-03-25 11:43:00,
2013-03-25 06:47:00,37.6,19.2,-100.00,NNE,23,2.0,7.0,47,0.00,,,0.00,meteohub,2013-03-25 11:47:00,
2013-03-25 06:49:00,37.6,19.2,-100.00,NE,45,5.0,7.0,47,0.00,,,0.00,meteohub,2013-03-25 11:49:00,
2013-03-25 06:53:00,37.2,18.9,-100.00,NE,45,2.0,6.0,47,0.00,,,0.00,meteohub,2013-03-25 11:53:00,
2013-03-25 06:55:00,37.2,18.9,-100.00,NE,45,0.0,5.0,47,0.00,,,0.00,meteohub,2013-03-25 11:55:00,
2013-03-25 06:59:00,37.2,18.9,-100.00,ENE,68,2.0,5.0,47,0.00,,,0.00,meteohub,2013-03-25 11:59:00,
2013-03-25 07:02:00,37.2,18.9,-100.00,NNE,23,1.0,5.0,47,0.00,,,0.00,meteohub,2013-03-25 12:02:00,
2013-03-25 07:05:00,37.2,18.9,-100.00,NNE,23,6.0,6.0,47,0.00,,,0.00,meteohub,2013-03-25 12:05:00,
2013-03-25 07:09:00,37.0,18.7,-100.00,NE,45,2.0,4.0,47,0.00,,,0.00,meteohub,2013-03-25 12:09:00,
2013-03-25 07:11:00,37.0,18.7,-100.00,NE,45,4.0,6.0,47,0.00,,,0.00,meteohub,2013-03-25 12:11:00,
2013-03-25 07:15:00,37.0,19.2,-100.00,North,0,2.0,6.0,48,0.00,,,0.00,meteohub,2013-03-25 12:15:00,
2013-03-25 07:17:00,37.0,19.2,-100.00,North,0,2.0,6.0,48,0.00,,,0.00,meteohub,2013-03-25 12:17:00,
2013-03-25 07:18:00,37.0,19.2,-100.00,NE,45,2.0,6.0,48,0.00,,,0.00,meteohub,2013-03-25 12:18:00,
2013-03-25 07:24:00,37.0,19.2,-100.00,NNE,23,4.0,6.0,48,0.00,,,0.00,meteohub,2013-03-25 12:24:00,
2013-03-25 07:26:00,36.9,19.0,-100.00,NE,45,0.0,5.0,48,0.00,,,0.00,meteohub,2013-03-25 12:26:00,
2013-03-25 07:28:00,36.9,19.0,-100.00,NE,45,0.0,5.0,48,0.00,,,0.00,meteohub,2013-03-25 12:28:00,
2013-03-25 07:30:00,36.9,19.0,-100.00,NE,45,4.0,5.0,48,0.00,,,0.00,meteohub,2013-03-25 12:30:00,
2013-03-25 07:32:00,36.9,19.0,-100.00,NNE,23,2.0,5.0,48,0.00,,,0.00,meteohub,2013-03-25 12:32:00,
2013-03-25 07:36:00,36.7,18.9,-100.00,ENE,68,0.0,5.0,48,0.00,,,0.00,meteohub,2013-03-25 12:36:00,
2013-03-25 07:40:00,36.7,19.4,-100.00,NNE,23,3.0,5.0,49,0.00,,,0.00,meteohub,2013-03-25 12:40:00,
2013-03-25 07:44:00,36.5,19.2,-100.00,NE,45,1.0,4.0,49,0.00,,,0.00,meteohub,2013-03-25 12:44:00,
2013-03-25 07:47:00,36.5,19.2,-100.00,NE,45,6.0,6.0,49,0.00,,,0.00,meteohub,2013-03-25 12:47:00,
2013-03-25 07:48:00,36.5,19.2,-100.00,ENE,68,4.0,4.0,49,0.00,,,0.00,meteohub,2013-03-25 12:48:00,
2013-03-25 07:50:00,36.5,18.7,-100.00,ENE,68,7.0,7.0,48,0.00,,,0.00,meteohub,2013-03-25 12:50:00,
2013-03-25 07:54:00,36.3,18.5,-100.00,NE,45,5.0,6.0,48,0.00,,,0.00,meteohub,2013-03-25 12:54:00,
2013-03-25 07:56:00,36.3,18.5,-100.00,NE,45,3.0,7.0,48,0.00,,,0.00,meteohub,2013-03-25 12:56:00,
2013-03-25 07:58:00,36.5,18.7,-100.00,ENE,68,5.0,7.0,48,0.00,,,0.00,meteohub,2013-03-25 12:58:00,
2013-03-25 08:05:00,37.0,19.2,-100.00,NNE,23,0.0,7.0,48,0.00,,,0.00,meteohub,2013-03-25 13:05:00,
2013-03-25 08:07:00,37.2,18.9,-100.00,NNE,23,0.0,7.0,47,0.00,,,0.00,meteohub,2013-03-25 13:07:00,
2013-03-25 08:13:00,37.2,18.9,-100.00,NNE,23,5.0,5.0,47,0.00,,,0.00,meteohub,2013-03-25 13:13:00,
2013-03-25 08:19:00,37.2,18.9,-100.00,ENE,68,2.0,8.0,47,0.00,,,0.00,meteohub,2013-03-25 13:19:00,
2013-03-25 08:21:00,37.2,18.9,-100.00,NNE,23,2.0,8.0,47,0.00,,,0.00,meteohub,2013-03-25 13:21:00,
2013-03-25 08:23:00,37.4,19.0,-100.00,NE,45,5.0,8.0,47,0.00,,,0.00,meteohub,2013-03-25 13:23:00,
2013-03-25 08:25:00,37.6,19.2,-100.00,NE,45,7.0,8.0,47,0.00,,,0.00,meteohub,2013-03-25 13:25:00,
2013-03-25 08:27:00,37.6,18.7,-100.00,NNE,23,3.0,8.0,46,0.00,,,0.00,meteohub,2013-03-25 13:27:00,
2013-03-25 08:29:00,37.8,18.9,-100.00,ENE,68,2.0,8.0,46,0.00,,,0.00,meteohub,2013-03-25 13:29:00,
2013-03-25 08:33:00,37.9,19.0,-100.00,NE,45,0.0,7.0,46,0.00,,,0.00,meteohub,2013-03-25 13:33:00,
2013-03-25 08:35:00,38.3,19.4,-100.00,ENE,68,4.0,7.0,46,0.00,,,0.00,meteohub,2013-03-25 13:35:00,
2013-03-25 08:39:00,38.8,19.8,-100.00,NE,45,0.0,7.0,46,0.00,,,0.00,meteohub,2013-03-25 13:39:00,
2013-03-25 08:41:00,39.0,19.4,-100.00,NNE,23,14.0,14.0,45,0.00,,,0.00,meteohub,2013-03-25 13:41:00,
2013-03-25 08:43:00,39.0,19.4,-100.00,SW,225,3.0,7.0,45,0.00,,,0.00,meteohub,2013-03-25 13:43:00,
2013-03-25 08:45:00,39.4,19.8,-100.00,NE,45,3.0,14.0,45,0.00,,,0.00,meteohub,2013-03-25 13:45:00,
2013-03-25 08:47:00,39.4,19.8,-100.00,NE,45,3.0,14.0,45,0.00,,,0.00,meteohub,2013-03-25 13:47:00,
2013-03-25 08:49:00,39.9,19.8,-100.00,NNE,23,3.0,14.0,44,0.00,,,0.00,meteohub,2013-03-25 13:49:00,
2013-03-25 08:51:00,39.9,19.8,-100.00,NNE,23,3.0,14.0,44,0.00,,,0.00,meteohub,2013-03-25 13:51:00,
2013-03-25 08:55:00,40.1,19.9,-100.00,NNE,23,8.0,14.0,44,0.00,,,0.00,meteohub,2013-03-25 13:55:00,
2013-03-25 08:57:00,40.3,19.6,-100.00,NE,45,6.0,14.0,43,0.00,,,0.00,meteohub,2013-03-25 13:57:00,
2013-03-25 09:01:00,40.8,20.1,-100.00,NNW,338,1.0,8.0,43,0.00,,,0.00,meteohub,2013-03-25 14:01:00,
2013-03-25 09:05:00,40.8,19.6,-100.00,NNE,23,2.0,11.0,42,0.00,,,0.00,meteohub,2013-03-25 14:05:00,
2013-03-25 09:09:00,41.2,19.8,-100.00,ENE,68,5.0,11.0,42,0.00,,,0.00,meteohub,2013-03-25 14:09:00,
2013-03-25 09:11:00,41.4,19.9,-100.00,East,90,2.0,11.0,42,0.00,,,0.00,meteohub,2013-03-25 14:11:00,
2013-03-25 09:16:00,41.7,20.3,-100.00,ENE,68,5.0,11.0,42,0.00,,,0.00,meteohub,2013-03-25 14:16:00,
2013-03-25 09:17:00,41.7,20.3,-100.00,ENE,68,5.0,11.0,42,0.00,,,0.00,meteohub,2013-03-25 14:17:00,
2013-03-25 09:18:00,41.9,19.9,-100.00,ENE,68,4.0,11.0,41,0.00,,,0.00,meteohub,2013-03-25 14:18:00,
2013-03-25 09:20:00,42.1,19.6,-100.00,NNE,23,2.0,11.0,40,0.00,,,0.00,meteohub,2013-03-25 14:20:00,
2013-03-25 09:24:00,42.4,20.5,-100.00,NE,45,4.0,6.0,41,0.00,,,0.00,meteohub,2013-03-25 14:24:00,
2013-03-25 09:26:00,42.4,19.8,-100.00,NE,45,6.0,6.0,40,0.00,,,0.00,meteohub,2013-03-25 14:26:00,
2013-03-25 09:30:00,42.6,19.9,-100.00,NNE,23,3.0,5.0,40,0.00,,,0.00,meteohub,2013-03-25 14:30:00,
2013-03-25 09:32:00,42.6,19.9,-100.00,NNE,23,3.0,6.0,40,0.00,,,0.00,meteohub,2013-03-25 14:32:00,
2013-03-25 09:36:00,43.0,20.3,-100.00,NE,45,1.0,6.0,40,0.00,,,0.00,meteohub,2013-03-25 14:36:00,
2013-03-25 09:38:00,43.3,20.1,-100.00,NE,45,2.0,6.0,39,0.00,,,0.00,meteohub,2013-03-25 14:38:00,
2013-03-25 09:44:00,44.1,20.7,-100.00,NE,45,4.0,6.0,39,0.00,,,0.00,meteohub,2013-03-25 14:44:00,
2013-03-25 09:47:00,44.4,20.5,-100.00,NE,45,6.0,6.0,38,0.00,,,0.00,meteohub,2013-03-25 14:47:00,
2013-03-25 09:52:00,45.0,19.6,-100.00,NNE,23,4.0,6.0,36,0.00,,,0.00,meteohub,2013-03-25 14:52:00,
2013-03-25 09:54:00,45.0,19.6,-100.00,NE,45,0.0,6.0,36,0.00,,,0.00,meteohub,2013-03-25 14:54:00,
2013-03-25 09:59:00,45.7,18.9,-100.00,ENE,68,3.0,6.0,34,0.00,,,0.00,meteohub,2013-03-25 14:59:00,
2013-03-25 10:01:00,45.7,18.1,-100.00,NE,45,6.0,6.0,33,0.00,,,0.00,meteohub,2013-03-25 15:01:00,
2013-03-25 10:05:00,45.7,18.1,-100.00,NNE,23,7.0,7.0,33,0.00,,,0.00,meteohub,2013-03-25 15:05:00,
2013-03-25 10:09:00,46.0,17.1,-100.00,NE,45,4.0,6.0,31,0.00,,,0.00,meteohub,2013-03-25 15:09:00,
2013-03-25 10:13:00,45.7,16.7,-100.00,NNE,23,6.0,7.0,31,0.00,,,0.00,meteohub,2013-03-25 15:13:00,
2013-03-25 10:17:00,45.7,16.0,-100.00,NE,45,4.0,7.0,30,0.00,,,0.00,meteohub,2013-03-25 15:17:00,
2013-03-25 10:19:00,45.7,15.3,-100.00,NE,45,9.0,9.0,29,0.00,,,0.00,meteohub,2013-03-25 15:19:00,
2013-03-25 10:21:00,45.7,16.0,-100.00,NE,45,5.0,11.0,30,0.00,,,0.00,meteohub,2013-03-25 15:21:00,
2013-03-25 10:23:00,45.7,16.0,-100.00,NE,45,5.0,11.0,30,0.00,,,0.00,meteohub,2013-03-25 15:23:00,
2013-03-25 10:29:00,46.6,17.6,-100.00,NE,45,3.0,11.0,31,0.00,,,0.00,meteohub,2013-03-25 15:29:00,
2013-03-25 10:32:00,47.3,18.1,-100.00,NE,45,6.0,11.0,31,0.00,,,0.00,meteohub,2013-03-25 15:32:00,
2013-03-25 10:36:00,47.5,17.6,-100.00,NE,45,1.0,9.0,30,0.00,,,0.00,meteohub,2013-03-25 15:36:00,
2013-03-25 10:38:00,47.8,18.0,-100.00,East,90,5.0,9.0,30,0.00,,,0.00,meteohub,2013-03-25 15:38:00,
2013-03-25 10:40:00,48.0,18.1,-100.00,NNE,23,6.0,9.0,30,0.00,,,0.00,meteohub,2013-03-25 15:40:00,
2013-03-25 10:44:00,48.2,18.1,-100.00,WNW,293,0.0,6.0,30,0.00,,,0.00,meteohub,2013-03-25 15:44:00,
2013-03-25 10:46:00,48.6,18.5,-100.00,North,0,0.0,6.0,30,0.00,,,0.00,meteohub,2013-03-25 15:46:00,
2013-03-25 10:50:00,49.3,18.3,-100.00,NNE,23,4.0,6.0,29,0.00,,,0.00,meteohub,2013-03-25 15:50:00,
2013-03-25 10:52:00,49.5,17.8,-100.00,NE,45,7.0,7.0,28,0.00,,,0.00,meteohub,2013-03-25 15:52:00,
2013-03-25 10:56:00,49.6,17.8,-100.00,NE,45,5.0,7.0,28,0.00,,,0.00,meteohub,2013-03-25 15:56:00,
2013-03-25 10:58:00,49.8,18.0,-100.00,NW,315,2.0,7.0,28,0.00,,,0.00,meteohub,2013-03-25 15:58:00,
2013-03-25 11:00:00,50.2,18.3,-100.00,NE,45,4.0,9.0,28,0.00,,,0.00,meteohub,2013-03-25 16:00:00,
2013-03-25 11:05:00,50.7,18.9,-100.00,ENE,68,1.0,9.0,28,0.00,,,0.00,meteohub,2013-03-25 16:05:00,
2013-03-25 11:09:00,50.7,18.0,-100.00,NE,45,2.0,9.0,27,0.00,,,0.00,meteohub,2013-03-25 16:09:00,
2013-03-25 11:11:00,51.1,18.3,-100.00,NE,45,0.0,9.0,27,0.00,,,0.00,meteohub,2013-03-25 16:11:00,
2013-03-25 11:13:00,51.4,19.4,-100.00,NE,45,4.0,9.0,28,0.00,,,0.00,meteohub,2013-03-25 16:13:00,
2013-03-25 11:17:00,51.8,19.8,-100.00,NNE,23,4.0,4.0,28,0.00,,,0.00,meteohub,2013-03-25 16:17:00,
2013-03-25 11:19:00,52.3,18.5,-100.00,NE,45,8.0,8.0,26,0.00,,,0.00,meteohub,2013-03-25 16:19:00,
2013-03-25 11:21:00,52.3,18.5,-100.00,ENE,68,4.0,6.0,26,0.00,,,0.00,meteohub,2013-03-25 16:21:00,
2013-03-25 11:23:00,52.7,18.7,-100.00,East,90,5.0,6.0,26,0.00,,,0.00,meteohub,2013-03-25 16:23:00,
2013-03-25 11:29:00,53.4,19.4,-100.00,ENE,68,3.0,8.0,26,0.00,,,0.00,meteohub,2013-03-25 16:29:00,
2013-03-25 11:32:00,53.4,19.4,-100.00,ENE,68,3.0,8.0,26,0.00,,,0.00,meteohub,2013-03-25 16:32:00,
2013-03-25 11:34:00,53.6,18.7,-100.00,ENE,68,3.0,8.0,25,0.00,,,0.00,meteohub,2013-03-25 16:34:00,
2013-03-25 11:40:00,53.8,18.9,-100.00,NNE,23,4.0,8.0,25,0.00,,,0.00,meteohub,2013-03-25 16:40:00,
2013-03-25 11:42:00,54.1,19.0,-100.00,NE,45,4.0,5.0,25,0.00,,,0.00,meteohub,2013-03-25 16:42:00,
2013-03-25 11:44:00,54.3,17.2,-100.00,NE,45,6.0,6.0,23,0.00,,,0.00,meteohub,2013-03-25 16:44:00,
2013-03-25 11:46:00,54.3,17.2,-100.00,North,0,5.0,6.0,23,0.00,,,0.00,meteohub,2013-03-25 16:46:00,
2013-03-25 11:50:00,54.0,17.1,-100.00,ENE,68,0.0,6.0,23,0.00,,,0.00,meteohub,2013-03-25 16:50:00,
2013-03-25 11:52:00,54.1,18.1,-100.00,NE,45,2.0,6.0,24,0.00,,,0.00,meteohub,2013-03-25 16:52:00,
2013-03-25 11:56:00,54.7,17.6,-100.00,NE,45,6.0,9.0,23,0.00,,,0.00,meteohub,2013-03-25 16:56:00,
2013-03-25 12:02:00,54.7,19.6,-100.00,NNW,338,0.0,9.0,25,0.00,,,0.00,meteohub,2013-03-25 17:02:00,
2013-03-25 12:03:00,54.7,19.6,-100.00,NNW,338,0.0,9.0,25,0.00,,,0.00,meteohub,2013-03-25 17:03:00,
2013-03-25 12:09:00,56.5,18.1,-100.00,ENE,68,5.0,9.0,22,0.00,,,0.00,meteohub,2013-03-25 17:09:00,
2013-03-25 12:13:00,56.3,18.0,-100.00,NE,45,7.0,7.0,22,0.00,,,0.00,meteohub,2013-03-25 17:13:00,
2013-03-25 12:17:00,56.3,18.0,-100.00,NE,45,3.0,7.0,22,0.00,,,0.00,meteohub,2013-03-25 17:17:00,
2013-03-25 12:21:00,56.5,20.1,-100.00,North,0,4.0,7.0,24,0.00,,,0.00,meteohub,2013-03-25 17:21:00,
2013-03-25 12:25:00,57.4,20.8,-100.00,NE,45,2.0,7.0,24,0.00,,,0.00,meteohub,2013-03-25 17:25:00,
2013-03-25 12:27:00,57.9,19.2,-100.00,NE,45,3.0,7.0,22,0.00,,,0.00,meteohub,2013-03-25 17:27:00,
2013-03-25 12:31:00,57.9,19.2,-100.00,North,0,9.0,9.0,22,0.00,,,0.00,meteohub,2013-03-25 17:31:00,
2013-03-25 12:32:00,57.9,19.2,-100.00,ENE,68,5.0,5.0,22,0.00,,,0.00,meteohub,2013-03-25 17:32:00,
2013-03-25 12:33:00,57.9,19.2,-100.00,ENE,68,5.0,5.0,22,0.00,,,0.00,meteohub,2013-03-25 17:33:00,
2013-03-25 12:37:00,57.7,18.1,-100.00,NNE,23,0.0,9.0,21,0.00,,,0.00,meteohub,2013-03-25 17:37:00,
2013-03-25 12:39:00,57.6,19.0,-100.00,NE,45,1.0,9.0,22,0.00,,,0.00,meteohub,2013-03-25 17:39:00,
2013-03-25 12:41:00,57.6,19.0,-100.00,NE,45,3.0,9.0,22,0.00,,,0.00,meteohub,2013-03-25 17:41:00,
2013-03-25 12:47:00,57.7,18.1,-100.00,NNE,23,3.0,9.0,21,0.00,,,0.00,meteohub,2013-03-25 17:47:00,
2013-03-25 12:49:00,57.4,18.9,-100.00,NW,315,0.0,9.0,22,0.00,,,0.00,meteohub,2013-03-25 17:49:00,
2013-03-25 12:51:00,57.6,19.0,-100.00,NE,45,3.0,5.0,22,0.00,,,0.00,meteohub,2013-03-25 17:51:00,
2013-03-25 12:57:00,57.7,19.2,-100.00,SW,225,3.0,4.0,22,0.00,,,0.00,meteohub,2013-03-25 17:57:00,
2013-03-25 12:59:00,57.9,19.2,-100.00,NNE,23,3.0,4.0,22,0.00,,,0.00,meteohub,2013-03-25 17:59:00,
2013-03-25 13:02:00,58.1,18.3,-100.00,SE,135,2.0,3.0,21,0.00,,,0.00,meteohub,2013-03-25 18:02:00,
2013-03-25 13:06:00,58.3,18.5,-100.00,ESE,113,5.0,5.0,21,0.00,,,0.00,meteohub,2013-03-25 18:06:00,
2013-03-25 13:08:00,58.3,18.5,-100.00,ESE,113,5.0,5.0,21,0.00,,,0.00,meteohub,2013-03-25 18:08:00,
2013-03-25 13:12:00,57.9,18.1,-100.00,SE,135,6.0,6.0,21,0.00,,,0.00,meteohub,2013-03-25 18:12:00,
2013-03-25 13:14:00,57.9,18.1,-100.00,ESE,113,1.0,5.0,21,0.00,,,0.00,meteohub,2013-03-25 18:14:00,
2013-03-25 13:16:00,57.7,18.1,-100.00,NE,45,0.0,6.0,21,0.00,,,0.00,meteohub,2013-03-25 18:16:00,
2013-03-25 13:18:00,57.9,19.2,-100.00,SE,135,0.0,6.0,22,0.00,,,0.00,meteohub,2013-03-25 18:18:00,
2013-03-25 13:22:00,58.6,19.9,-100.00,NNE,23,3.0,6.0,22,0.00,,,0.00,meteohub,2013-03-25 18:22:00,
2013-03-25 13:24:00,58.8,20.1,-100.00,NNE,23,1.0,6.0,22,0.00,,,0.00,meteohub,2013-03-25 18:24:00,
2013-03-25 13:28:00,59.0,19.0,-100.00,ENE,68,5.0,6.0,21,0.00,,,0.00,meteohub,2013-03-25 18:28:00,
2013-03-25 13:32:00,59.0,19.0,-100.00,East,90,6.0,6.0,21,0.00,,,0.00,meteohub,2013-03-25 18:32:00,
2013-03-25 13:37:00,58.8,19.0,-100.00,NNE,23,3.0,6.0,21,0.00,,,0.00,meteohub,2013-03-25 18:37:00,
2013-03-25 13:42:00,59.2,20.3,-100.00,NNE,23,4.0,6.0,22,0.00,,,0.00,meteohub,2013-03-25 18:42:00,
2013-03-25 13:46:00,60.3,20.1,-100.00,NE,45,4.0,6.0,21,0.00,,,0.00,meteohub,2013-03-25 18:46:00,
2013-03-25 13:47:00,60.3,20.1,-100.00,NE,45,4.0,6.0,21,0.00,,,0.00,meteohub,2013-03-25 18:47:00,
2013-03-25 13:52:00,60.3,20.1,-100.00,NE,45,2.0,5.0,21,0.00,,,0.00,meteohub,2013-03-25 18:52:00,
2013-03-25 13:54:00,60.1,19.9,-100.00,NE,45,3.0,5.0,21,0.00,,,0.00,meteohub,2013-03-25 18:54:00,
2013-03-25 13:56:00,60.1,19.9,-100.00,West,270,0.0,5.0,21,0.00,,,0.00,meteohub,2013-03-25 18:56:00,
2013-03-25 14:02:00,60.4,20.3,-100.00,ENE,68,2.0,7.0,21,0.00,,,0.00,meteohub,2013-03-25 19:02:00,
2013-03-25 14:08:00,60.3,19.0,-100.00,East,90,3.0,7.0,20,0.00,,,0.00,meteohub,2013-03-25 19:08:00,
2013-03-25 14:12:00,60.1,18.9,-100.00,SSW,203,2.0,7.0,20,0.00,,,0.00,meteohub,2013-03-25 19:12:00,
2013-03-25 14:14:00,59.7,17.4,-100.00,NE,45,0.0,7.0,19,0.00,,,0.00,meteohub,2013-03-25 19:14:00,
2013-03-25 14:20:00,60.1,18.9,-100.00,NNE,23,4.0,7.0,20,0.00,,,0.00,meteohub,2013-03-25 19:20:00,
2013-03-25 14:23:00,60.4,19.2,-100.00,SSW,203,1.0,7.0,20,0.00,,,0.00,meteohub,2013-03-25 19:23:00,
2013-03-25 14:27:00,60.6,19.4,-100.00,NE,45,9.0,9.0,20,0.00,,,0.00,meteohub,2013-03-25 19:27:00,
2013-03-25 14:29:00,60.6,18.1,-100.00,ESE,113,2.0,6.0,19,0.00,,,0.00,meteohub,2013-03-25 19:29:00,
2013-03-25 14:32:00,60.4,19.2,-100.00,SSW,203,0.0,9.0,20,0.00,,,0.00,meteohub,2013-03-25 19:32:00,
2013-03-25 14:37:00,61.0,19.6,-100.00,NE,45,1.0,9.0,20,0.00,,,0.00,meteohub,2013-03-25 19:37:00,
2013-03-25 14:41:00,61.7,21.4,-100.00,ENE,68,0.0,9.0,21,0.00,,,0.00,meteohub,2013-03-25 19:41:00,
2013-03-25 14:43:00,62.1,19.2,-100.00,ENE,68,2.0,9.0,19,0.00,,,0.00,meteohub,2013-03-25 19:43:00,
2013-03-25 14:45:00,62.1,20.5,-100.00,NNE,23,2.0,2.0,20,0.00,,,0.00,meteohub,2013-03-25 19:45:00,
2013-03-25 14:52:00,62.4,19.6,-100.00,NNE,23,3.0,9.0,19,0.00,,,0.00,meteohub,2013-03-25 19:52:00,
2013-03-25 14:57:00,63.1,20.1,-100.00,NE,45,3.0,9.0,19,0.00,,,0.00,meteohub,2013-03-25 19:57:00,
2013-03-25 14:59:00,63.7,20.7,-100.00,NNE,23,4.0,9.0,19,0.00,,,0.00,meteohub,2013-03-25 19:59:00,
2013-03-25 15:03:00,63.7,20.7,-100.00,ENE,68,2.0,9.0,19,0.00,,,0.00,meteohub,2013-03-25 20:03:00,
2013-03-25 15:05:00,63.7,19.4,-100.00,NNW,338,2.0,4.0,18,0.00,,,0.00,meteohub,2013-03-25 20:05:00,
2013-03-25 15:08:00,63.7,19.4,-100.00,ENE,68,0.0,4.0,18,0.00,,,0.00,meteohub,2013-03-25 20:08:00,
2013-03-25 15:12:00,63.5,19.2,-100.00,ENE,68,0.0,4.0,18,0.00,,,0.00,meteohub,2013-03-25 20:12:00,
2013-03-25 15:14:00,63.7,19.4,-100.00,NNE,23,3.0,4.0,18,0.00,,,0.00,meteohub,2013-03-25 20:14:00,
2013-03-25 15:17:00,63.5,18.0,-100.00,ESE,113,1.0,4.0,17,0.00,,,0.00,meteohub,2013-03-25 20:17:00,
2013-03-25 15:20:00,63.1,18.9,-100.00,North,0,0.0,4.0,18,0.00,,,0.00,meteohub,2013-03-25 20:20:00,
2013-03-25 15:22:00,63.0,18.9,-100.00,NE,45,4.0,4.0,18,0.00,,,0.00,meteohub,2013-03-25 20:22:00,
2013-03-25 15:26:00,63.1,20.1,-100.00,NNW,338,1.0,4.0,19,0.00,,,0.00,meteohub,2013-03-25 20:26:00,
2013-03-25 15:28:00,63.3,20.3,-100.00,ESE,113,2.0,4.0,19,0.00,,,0.00,meteohub,2013-03-25 20:28:00,
2013-03-25 15:32:00,63.3,19.0,-100.00,NNE,23,2.0,4.0,18,0.00,,,0.00,meteohub,2013-03-25 20:32:00,
2013-03-25 15:38:00,62.6,18.5,-100.00,ESE,113,0.0,4.0,18,0.00,,,0.00,meteohub,2013-03-25 20:38:00,
2013-03-25 15:40:00,62.6,18.5,-100.00,ENE,68,4.0,4.0,18,0.00,,,0.00,meteohub,2013-03-25 20:40:00,
2013-03-25 15:42:00,62.6,18.5,-100.00,ENE,68,4.0,4.0,18,0.00,,,0.00,meteohub,2013-03-25 20:42:00,
2013-03-25 15:46:00,62.4,18.3,-100.00,North,0,1.0,4.0,18,0.00,,,0.00,meteohub,2013-03-25 20:46:00,
2013-03-25 15:47:00,62.2,18.1,-100.00,ENE,68,4.0,4.0,18,0.00,,,0.00,meteohub,2013-03-25 20:47:00,
2013-03-25 15:48:00,62.2,18.1,-100.00,ENE,68,4.0,4.0,18,0.00,,,0.00,meteohub,2013-03-25 20:48:00,
2013-03-25 15:50:00,61.9,16.5,-100.00,NNE,23,3.0,4.0,17,0.00,,,0.00,meteohub,2013-03-25 20:50:00,
2013-03-25 15:52:00,61.7,17.8,-100.00,SE,135,0.0,4.0,18,0.00,,,0.00,meteohub,2013-03-25 20:52:00,
2013-03-25 15:54:00,61.5,18.9,-100.00,West,270,3.0,4.0,19,0.00,,,0.00,meteohub,2013-03-25 20:54:00,
2013-03-25 15:58:00,61.9,19.2,-100.00,ESE,113,1.0,4.0,19,0.00,,,0.00,meteohub,2013-03-25 20:58:00,
2013-03-25 16:00:00,62.1,18.0,-100.00,SE,135,2.0,4.0,18,0.00,,,0.00,meteohub,2013-03-25 21:00:00,
2013-03-25 16:02:00,61.9,18.0,-100.00,ESE,113,1.0,4.0,18,0.00,,,0.00,meteohub,2013-03-25 21:02:00,
2013-03-25 16:04:00,61.9,18.0,-100.00,ESE,113,1.0,4.0,18,0.00,,,0.00,meteohub,2013-03-25 21:04:00,
2013-03-25 16:10:00,61.7,17.8,-100.00,NNE,23,5.0,5.0,18,0.00,,,0.00,meteohub,2013-03-25 21:10:00,
2013-03-25 16:12:00,61.9,18.0,-100.00,NNE,23,3.0,3.0,18,0.00,,,0.00,meteohub,2013-03-25 21:12:00,
2013-03-25 16:14:00,61.7,17.8,-100.00,NE,45,2.0,3.0,18,0.00,,,0.00,meteohub,2013-03-25 21:14:00,
2013-03-25 16:17:00,61.7,19.0,-100.00,SSW,203,3.0,5.0,19,0.00,,,0.00,meteohub,2013-03-25 21:17:00,
2013-03-25 16:19:00,61.5,17.6,-100.00,SSE,158,0.0,5.0,18,0.00,,,0.00,meteohub,2013-03-25 21:19:00,
2013-03-25 16:23:00,61.5,17.6,-100.00,NE,45,1.0,5.0,18,0.00,,,0.00,meteohub,2013-03-25 21:23:00,
2013-03-25 16:25:00,61.5,17.6,-100.00,ESE,113,2.0,5.0,18,0.00,,,0.00,meteohub,2013-03-25 21:25:00,
2013-03-25 16:29:00,61.5,17.6,-100.00,NE,45,6.0,6.0,18,0.00,,,0.00,meteohub,2013-03-25 21:29:00,
2013-03-25 16:31:00,61.5,17.6,-100.00,NE,45,6.0,6.0,18,0.00,,,0.00,meteohub,2013-03-25 21:31:00,
2013-03-25 16:33:00,61.2,17.2,-100.00,NE,45,2.0,3.0,18,0.00,,,0.00,meteohub,2013-03-25 21:33:00,
2013-03-25 16:37:00,61.0,17.2,-100.00,NNE,23,4.0,6.0,18,0.00,,,0.00,meteohub,2013-03-25 21:37:00,
2013-03-25 16:39:00,61.0,17.2,-100.00,SE,135,4.0,6.0,18,0.00,,,0.00,meteohub,2013-03-25 21:39:00,
2013-03-25 16:41:00,60.8,17.1,-100.00,NNE,23,5.0,6.0,18,0.00,,,0.00,meteohub,2013-03-25 21:41:00,
2013-03-25 16:45:00,61.0,17.2,-100.00,NE,45,1.0,6.0,18,0.00,,,0.00,meteohub,2013-03-25 21:45:00,
2013-03-25 16:47:00,61.2,17.2,-100.00,NNE,23,4.0,6.0,18,0.00,,,0.00,meteohub,2013-03-25 21:47:00,
2013-03-25 16:51:00,61.0,17.2,-100.00,ENE,68,1.0,5.0,18,0.00,,,0.00,meteohub,2013-03-25 21:51:00,
2013-03-25 16:53:00,61.0,17.2,-100.00,North,0,0.0,5.0,18,0.00,,,0.00,meteohub,2013-03-25 21:53:00,
2013-03-25 16:57:00,61.5,18.9,-100.00,NNE,23,2.0,5.0,19,0.00,,,0.00,meteohub,2013-03-25 21:57:00,
2013-03-25 16:59:00,61.9,19.2,-100.00,NE,45,2.0,5.0,19,0.00,,,0.00,meteohub,2013-03-25 21:59:00,
2013-03-25 17:01:00,61.9,19.2,-100.00,NNE,23,0.0,5.0,19,0.00,,,0.00,meteohub,2013-03-25 22:01:00,
2013-03-25 17:05:00,62.2,18.1,-100.00,NE,45,3.0,5.0,18,0.00,,,0.00,meteohub,2013-03-25 22:05:00,
2013-03-25 17:12:00,62.1,18.0,-100.00,East,90,0.0,3.0,18,0.00,,,0.00,meteohub,2013-03-25 22:12:00,
2013-03-25 17:16:00,61.7,17.8,-100.00,ESE,113,0.0,3.0,18,0.00,,,0.00,meteohub,2013-03-25 22:16:00,
2013-03-25 17:22:00,61.7,17.8,-100.00,NW,315,0.0,3.0,18,0.00,,,0.00,meteohub,2013-03-25 22:22:00,
2013-03-25 17:28:00,61.9,18.0,-100.00,ENE,68,0.0,2.0,18,0.00,,,0.00,meteohub,2013-03-25 22:28:00,
2013-03-25 17:32:00,61.9,18.0,-100.00,NE,45,4.0,4.0,18,0.00,,,0.00,meteohub,2013-03-25 22:32:00,
2013-03-25 17:34:00,61.7,17.8,-100.00,NW,315,3.0,3.0,18,0.00,,,0.00,meteohub,2013-03-25 22:34:00,
2013-03-25 17:36:00,61.5,17.6,-100.00,WNW,293,0.0,4.0,18,0.00,,,0.00,meteohub,2013-03-25 22:36:00,
2013-03-25 17:40:00,61.5,17.6,-100.00,WNW,293,5.0,5.0,18,0.00,,,0.00,meteohub,2013-03-25 22:40:00,
2013-03-25 17:44:00,61.3,18.7,-100.00,WNW,293,0.0,4.0,19,0.00,,,0.00,meteohub,2013-03-25 22:44:00,
2013-03-25 17:46:00,61.3,18.7,-100.00,NNE,23,5.0,5.0,19,0.00,,,0.00,meteohub,2013-03-25 22:46:00,
2013-03-25 17:47:00,61.2,18.5,-100.00,North,0,4.0,5.0,19,0.00,,,0.00,meteohub,2013-03-25 22:47:00,
2013-03-25 17:52:00,60.8,17.1,-100.00,NE,45,3.0,5.0,18,0.00,,,0.00,meteohub,2013-03-25 22:52:00,
2013-03-25 17:54:00,60.6,16.9,-100.00,ENE,68,0.0,5.0,18,0.00,,,0.00,meteohub,2013-03-25 22:54:00,
2013-03-25 17:56:00,60.4,18.0,-100.00,NE,45,0.0,5.0,19,0.00,,,0.00,meteohub,2013-03-25 22:56:00,
2013-03-25 18:00:00,60.1,16.3,-100.00,NNE,23,7.0,7.0,18,0.00,,,0.00,meteohub,2013-03-25 23:00:00,
2013-03-25 18:02:00,59.7,16.2,-100.00,SW,225,3.0,5.0,18,0.00,,,0.00,meteohub,2013-03-25 23:02:00,
2013-03-25 18:06:00,59.5,17.2,-100.00,SSE,158,1.0,7.0,19,0.00,,,0.00,meteohub,2013-03-25 23:06:00,
2013-03-25 18:08:00,59.2,15.6,-100.00,ENE,68,0.0,7.0,18,0.00,,,0.00,meteohub,2013-03-25 23:08:00,
2013-03-25 18:10:00,59.0,16.7,-100.00,NNE,23,0.0,7.0,19,0.00,,,0.00,meteohub,2013-03-25 23:10:00,
2013-03-25 18:16:00,58.8,16.7,-100.00,ENE,68,3.0,7.0,19,0.00,,,0.00,meteohub,2013-03-25 23:16:00,
2013-03-25 18:17:00,58.8,16.7,-100.00,ENE,68,3.0,7.0,19,0.00,,,0.00,meteohub,2013-03-25 23:17:00,
2013-03-25 18:18:00,58.8,16.7,-100.00,NE,45,6.0,7.0,19,0.00,,,0.00,meteohub,2013-03-25 23:18:00,
2013-03-25 18:20:00,58.6,16.5,-100.00,NE,45,1.0,4.0,19,0.00,,,0.00,meteohub,2013-03-25 23:20:00,
2013-03-25 18:22:00,58.6,16.5,-100.00,NNE,23,2.0,4.0,19,0.00,,,0.00,meteohub,2013-03-25 23:22:00,
2013-03-25 18:24:00,58.6,16.5,-100.00,ENE,68,2.0,4.0,19,0.00,,,0.00,meteohub,2013-03-25 23:24:00,
2013-03-25 18:27:00,58.3,16.2,-100.00,NNE,23,3.0,6.0,19,0.00,,,0.00,meteohub,2013-03-25 23:27:00,
2013-03-25 18:32:00,57.9,17.1,-100.00,NNE,23,0.0,6.0,20,0.00,,,0.00,meteohub,2013-03-25 23:32:00,
2013-03-25 18:33:00,57.9,17.1,-100.00,NNE,23,0.0,6.0,20,0.00,,,0.00,meteohub,2013-03-25 23:33:00,
2013-03-25 18:39:00,57.7,15.8,-100.00,NNE,23,2.0,3.0,19,0.00,,,0.00,meteohub,2013-03-25 23:39:00,
2013-03-25 18:41:00,57.6,16.7,-100.00,NE,45,5.0,5.0,20,0.00,,,0.00,meteohub,2013-03-25 23:41:00,
2013-03-25 18:45:00,57.4,16.7,-100.00,NE,45,2.0,3.0,20,0.00,,,0.00,meteohub,2013-03-25 23:45:00,
2013-03-25 18:47:00,57.2,16.5,-100.00,NNE,23,2.0,5.0,20,0.00,,,0.00,meteohub,2013-03-25 23:47:00,
2013-03-25 18:49:00,57.0,16.3,-100.00,ENE,68,0.0,5.0,20,0.00,,,0.00,meteohub,2013-03-25 23:49:00,
2013-03-25 18:51:00,57.0,16.3,-100.00,NNE,23,2.0,5.0,20,0.00,,,0.00,meteohub,2013-03-25 23:51:00,
2013-03-25 18:57:00,56.8,16.2,-100.00,NNE,23,0.0,5.0,20,0.00,,,0.00,meteohub,2013-03-25 23:57:00,
2013-03-25 18:59:00,56.8,16.2,-100.00,NE,45,0.0,5.0,20,0.00,,,0.00,meteohub,2013-03-25 23:59:00,
2013-03-25 19:02:00,56.8,16.2,-100.00,ENE,68,2.0,2.0,20,0.00,,,0.00,meteohub,2013-03-26 00:02:00,
2013-03-25 19:05:00,56.5,15.8,-100.00,NE,45,0.0,2.0,20,0.00,,,0.00,meteohub,2013-03-26 00:05:00,
2013-03-25 19:09:00,56.5,17.1,-100.00,NE,45,0.0,2.0,21,0.00,,,0.00,meteohub,2013-03-26 00:09:00,
2013-03-25 19:11:00,56.5,17.1,-100.00,ENE,68,4.0,4.0,21,0.00,,,0.00,meteohub,2013-03-26 00:11:00,
2013-03-25 19:17:00,56.1,15.6,-100.00,East,90,2.0,4.0,20,0.00,,,0.00,meteohub,2013-03-26 00:17:00,
2013-03-25 19:19:00,55.9,16.5,-100.00,NE,45,2.0,4.0,21,0.00,,,0.00,meteohub,2013-03-26 00:19:00,
2013-03-25 19:21:00,55.9,16.5,-100.00,ENE,68,2.0,4.0,21,0.00,,,0.00,meteohub,2013-03-26 00:21:00,
2013-03-25 19:25:00,55.6,16.2,-100.00,NNE,23,2.0,4.0,21,0.00,,,0.00,meteohub,2013-03-26 00:25:00,
2013-03-25 19:27:00,55.6,16.2,-100.00,NNE,23,5.0,5.0,21,0.00,,,0.00,meteohub,2013-03-26 00:27:00,
2013-03-25 19:32:00,55.2,16.0,-100.00,NE,45,0.0,5.0,21,0.00,,,0.00,meteohub,2013-03-26 00:32:00,
2013-03-25 19:36:00,55.2,16.0,-100.00,ENE,68,0.0,5.0,21,0.00,,,0.00,meteohub,2013-03-26 00:36:00,
2013-03-25 19:42:00,55.0,16.9,-100.00,ENE,68,1.0,5.0,22,0.00,,,0.00,meteohub,2013-03-26 00:42:00,
2013-03-25 19:44:00,55.0,16.9,-100.00,NNE,23,1.0,5.0,22,0.00,,,0.00,meteohub,2013-03-26 00:44:00,
2013-03-25 19:46:00,54.7,16.5,-100.00,NE,45,0.0,2.0,22,0.00,,,0.00,meteohub,2013-03-26 00:46:00,
2013-03-25 19:48:00,54.7,16.5,-100.00,NE,45,4.0,4.0,22,0.00,,,0.00,meteohub,2013-03-26 00:48:00,
2013-03-25 19:52:00,54.3,16.3,-100.00,NE,45,2.0,4.0,22,0.00,,,0.00,meteohub,2013-03-26 00:52:00,
2013-03-25 19:56:00,54.1,16.2,-100.00,NE,45,0.0,4.0,22,0.00,,,0.00,meteohub,2013-03-26 00:56:00,
2013-03-25 19:58:00,54.0,16.0,-100.00,ENE,68,1.0,4.0,22,0.00,,,0.00,meteohub,2013-03-26 00:58:00,
2013-03-25 20:00:00,53.8,16.9,-100.00,ENE,68,1.0,4.0,23,0.00,,,0.00,meteohub,2013-03-26 01:00:00,
2013-03-25 20:02:00,53.8,16.9,-100.00,NE,45,0.0,4.0,23,0.00,,,0.00,meteohub,2013-03-26 01:02:00,
2013-03-25 20:08:00,53.4,16.5,-100.00,NE,45,2.0,4.0,23,0.00,,,0.00,meteohub,2013-03-26 01:08:00,
2013-03-25 20:10:00,53.2,16.3,-100.00,NE,45,0.0,4.0,23,0.00,,,0.00,meteohub,2013-03-26 01:10:00,
2013-03-25 20:12:00,53.2,16.3,-100.00,NE,45,0.0,2.0,23,0.00,,,0.00,meteohub,2013-03-26 01:12:00,
2013-03-25 20:16:00,53.1,17.2,-100.00,NNE,23,1.0,2.0,24,0.00,,,0.00,meteohub,2013-03-26 01:16:00,
2013-03-25 20:18:00,52.9,17.1,-100.00,NE,45,2.0,2.0,24,0.00,,,0.00,meteohub,2013-03-26 01:18:00,
2013-03-25 20:22:00,52.7,16.9,-100.00,NE,45,0.0,2.0,24,0.00,,,0.00,meteohub,2013-03-26 01:22:00,
2013-03-25 20:26:00,52.5,16.7,-100.00,NE,45,0.0,2.0,24,0.00,,,0.00,meteohub,2013-03-26 01:26:00,
2013-03-25 20:28:00,52.5,16.7,-100.00,NNE,23,1.0,2.0,24,0.00,,,0.00,meteohub,2013-03-26 01:28:00,
2013-03-25 20:30:00,52.3,16.5,-100.00,NNE,23,0.0,2.0,24,0.00,,,0.00,meteohub,2013-03-26 01:30:00,
2013-03-25 20:32:00,52.2,16.5,-100.00,NNE,23,0.0,2.0,24,0.00,,,0.00,meteohub,2013-03-26 01:32:00,
2013-03-25 20:34:00,52.2,16.5,-100.00,NE,45,0.0,2.0,24,0.00,,,0.00,meteohub,2013-03-26 01:34:00,
2013-03-25 20:36:00,52.0,16.3,-100.00,NE,45,1.0,1.0,24,0.00,,,0.00,meteohub,2013-03-26 01:36:00,
2013-03-25 20:38:00,52.0,16.3,-100.00,ENE,68,0.0,1.0,24,0.00,,,0.00,meteohub,2013-03-26 01:38:00,
2013-03-25 20:40:00,51.8,16.2,-100.00,NNE,23,0.0,1.0,24,0.00,,,0.00,meteohub,2013-03-26 01:40:00,
2013-03-25 20:47:00,51.6,17.8,-100.00,NE,45,2.0,2.0,26,0.00,,,0.00,meteohub,2013-03-26 01:47:00,
2013-03-25 20:49:00,51.4,17.6,-100.00,ENE,68,0.0,1.0,26,0.00,,,0.00,meteohub,2013-03-26 01:49:00,
2013-03-25 20:51:00,51.4,17.6,-100.00,NE,45,0.0,2.0,26,0.00,,,0.00,meteohub,2013-03-26 01:51:00,
2013-03-25 20:53:00,51.1,17.4,-100.00,NE,45,0.0,2.0,26,0.00,,,0.00,meteohub,2013-03-26 01:53:00,
2013-03-25 20:59:00,51.1,17.4,-100.00,NE,45,3.0,3.0,26,0.00,,,0.00,meteohub,2013-03-26 01:59:00,
2013-03-25 21:01:00,50.9,17.2,-100.00,NNE,23,2.0,3.0,26,0.00,,,0.00,meteohub,2013-03-26 02:01:00,
2013-03-25 21:05:00,50.7,17.1,-100.00,NNE,23,0.0,3.0,26,0.00,,,0.00,meteohub,2013-03-26 02:05:00,
2013-03-25 21:07:00,50.7,18.0,-100.00,NNE,23,0.0,3.0,27,0.00,,,0.00,meteohub,2013-03-26 02:07:00,
2013-03-25 21:09:00,50.5,17.8,-100.00,NE,45,0.0,3.0,27,0.00,,,0.00,meteohub,2013-03-26 02:09:00,
2013-03-25 21:11:00,50.5,17.8,-100.00,NE,45,0.0,3.0,27,0.00,,,0.00,meteohub,2013-03-26 02:11:00,
2013-03-25 21:15:00,50.4,17.6,-100.00,NE,45,0.0,3.0,27,0.00,,,0.00,meteohub,2013-03-26 02:15:00,
2013-03-25 21:17:00,50.4,17.6,-100.00,NE,45,0.0,2.0,27,0.00,,,0.00,meteohub,2013-03-26 02:17:00,
2013-03-25 21:23:00,50.2,17.4,-100.00,NNE,23,1.0,2.0,27,0.00,,,0.00,meteohub,2013-03-26 02:23:00,
2013-03-25 21:25:00,49.8,17.2,-100.00,NNE,23,1.0,2.0,27,0.00,,,0.00,meteohub,2013-03-26 02:25:00,
2013-03-25 21:29:00,49.8,18.0,-100.00,NNE,23,2.0,2.0,28,0.00,,,0.00,meteohub,2013-03-26 02:29:00,
2013-03-25 21:31:00,49.8,18.0,-100.00,NNE,23,2.0,2.0,28,0.00,,,0.00,meteohub,2013-03-26 02:31:00,
2013-03-25 21:33:00,49.6,17.8,-100.00,NNE,23,0.0,2.0,28,0.00,,,0.00,meteohub,2013-03-26 02:33:00,
2013-03-25 21:35:00,49.6,17.8,-100.00,NNE,23,0.0,2.0,28,0.00,,,0.00,meteohub,2013-03-26 02:35:00,
2013-03-25 21:39:00,49.6,18.7,-100.00,NNE,23,0.0,2.0,29,0.00,,,0.00,meteohub,2013-03-26 02:39:00,
2013-03-25 21:43:00,49.3,18.3,-100.00,NE,45,0.0,2.0,29,0.00,,,0.00,meteohub,2013-03-26 02:43:00,
2013-03-25 21:45:00,49.3,18.3,-100.00,NE,45,0.0,2.0,29,0.00,,,0.00,meteohub,2013-03-26 02:45:00,
2013-03-25 21:47:00,49.3,18.3,-100.00,NNE,23,1.0,2.0,29,0.00,,,0.00,meteohub,2013-03-26 02:47:00,
2013-03-25 21:48:00,49.3,18.3,-100.00,NNE,23,1.0,2.0,29,0.00,,,0.00,meteohub,2013-03-26 02:48:00,
2013-03-25 21:52:00,48.9,18.9,-100.00,NE,45,0.0,1.0,30,0.00,,,0.00,meteohub,2013-03-26 02:52:00,
2013-03-25 21:54:00,48.9,18.9,-100.00,NNE,23,0.0,1.0,30,0.00,,,0.00,meteohub,2013-03-26 02:54:00,
2013-03-25 21:58:00,48.7,18.7,-100.00,NNE,23,0.0,1.0,30,0.00,,,0.00,meteohub,2013-03-26 02:58:00,
2013-03-25 22:00:00,48.6,18.5,-100.00,NNE,23,0.0,1.0,30,0.00,,,0.00,meteohub,2013-03-26 03:00:00,
2013-03-25 22:02:00,48.6,19.2,-100.00,NNE,23,0.0,1.0,31,0.00,,,0.00,meteohub,2013-03-26 03:02:00,
2013-03-25 22:08:00,48.0,18.9,-100.00,NNE,23,0.0,0.0,31,0.00,,,0.00,meteohub,2013-03-26 03:08:00,
2013-03-25 22:10:00,48.0,18.9,-100.00,NNE,23,0.0,0.0,31,0.00,,,0.00,meteohub,2013-03-26 03:10:00,
2013-03-25 22:14:00,47.8,19.4,-100.00,NNE,23,0.0,0.0,32,0.00,,,0.00,meteohub,2013-03-26 03:14:00,
2013-03-25 22:17:00,47.8,19.4,-100.00,NE,45,0.0,0.0,32,0.00,,,0.00,meteohub,2013-03-26 03:17:00,
2013-03-25 22:20:00,47.7,19.2,-100.00,NE,45,0.0,0.0,32,0.00,,,0.00,meteohub,2013-03-26 03:20:00,
2013-03-25 22:22:00,47.7,19.2,-100.00,NE,45,0.0,0.0,32,0.00,,,0.00,meteohub,2013-03-26 03:22:00,
2013-03-25 22:26:00,47.3,18.9,-100.00,NNE,23,0.0,0.0,32,0.00,,,0.00,meteohub,2013-03-26 03:26:00,
2013-03-25 22:28:00,47.3,18.9,-100.00,NNE,23,1.0,0.0,32,0.00,,,0.00,meteohub,2013-03-26 03:28:00,
2013-03-25 22:30:00,47.1,18.7,-100.00,NNE,23,0.0,0.0,32,0.00,,,0.00,meteohub,2013-03-26 03:30:00,
2013-03-25 22:32:00,47.1,18.7,-100.00,NNE,23,1.0,0.0,32,0.00,,,0.00,meteohub,2013-03-26 03:32:00,
2013-03-25 22:38:00,46.9,19.4,-100.00,NNE,23,1.0,1.0,33,0.00,,,0.00,meteohub,2013-03-26 03:38:00,
2013-03-25 22:40:00,46.9,19.4,-100.00,NNE,23,0.0,1.0,33,0.00,,,0.00,meteohub,2013-03-26 03:40:00,
2013-03-25 22:44:00,46.8,19.2,-100.00,North,0,2.0,2.0,33,0.00,,,0.00,meteohub,2013-03-26 03:44:00,
2013-03-25 22:46:00,46.8,19.2,-100.00,NNE,23,2.0,2.0,33,0.00,,,0.00,meteohub,2013-03-26 03:46:00,
2013-03-25 22:48:00,46.8,19.2,-100.00,North,0,0.0,1.0,33,0.00,,,0.00,meteohub,2013-03-26 03:48:00,
2013-03-25 22:52:00,46.8,19.2,-100.00,NE,45,0.0,2.0,33,0.00,,,0.00,meteohub,2013-03-26 03:52:00,
2013-03-25 22:54:00,46.8,19.2,-100.00,NE,45,0.0,2.0,33,0.00,,,0.00,meteohub,2013-03-26 03:54:00,
2013-03-25 22:56:00,46.8,19.2,-100.00,NE,45,0.0,2.0,33,0.00,,,0.00,meteohub,2013-03-26 03:56:00,
2013-03-25 22:58:00,46.8,19.2,-100.00,NE,45,0.0,2.0,33,0.00,,,0.00,meteohub,2013-03-26 03:58:00,
2013-03-25 23:00:00,46.8,19.2,-100.00,NNE,23,2.0,2.0,33,0.00,,,0.00,meteohub,2013-03-26 04:00:00,
2013-03-25 23:02:00,46.8,19.2,-100.00,NNE,23,0.0,2.0,33,0.00,,,0.00,meteohub,2013-03-26 04:02:00,
2013-03-25 23:04:00,46.8,19.2,-100.00,NE,45,1.0,2.0,33,0.00,,,0.00,meteohub,2013-03-26 04:04:00,
2013-03-25 23:07:00,46.6,19.0,-100.00,NE,45,2.0,2.0,33,0.00,,,0.00,meteohub,2013-03-26 04:07:00,
2013-03-25 23:09:00,46.8,19.2,-100.00,NNE,23,1.0,2.0,33,0.00,,,0.00,meteohub,2013-03-26 04:09:00,
2013-03-25 23:13:00,46.6,19.0,-100.00,NE,45,1.0,2.0,33,0.00,,,0.00,meteohub,2013-03-26 04:13:00,
2013-03-25 23:17:00,46.6,19.0,-100.00,NNE,23,3.0,3.0,33,0.00,,,0.00,meteohub,2013-03-26 04:17:00,
2013-03-25 23:19:00,46.6,19.8,-100.00,North,0,0.0,2.0,34,0.00,,,0.00,meteohub,2013-03-26 04:19:00,
2013-03-25 23:21:00,46.6,19.0,-100.00,NNE,23,1.0,3.0,33,0.00,,,0.00,meteohub,2013-03-26 04:21:00,
2013-03-25 23:23:00,46.6,19.8,-100.00,NNE,23,0.0,3.0,34,0.00,,,0.00,meteohub,2013-03-26 04:23:00,
2013-03-25 23:27:00,46.6,19.8,-100.00,NE,45,0.0,3.0,34,0.00,,,0.00,meteohub,2013-03-26 04:27:00,
2013-03-25 23:29:00,46.6,19.8,-100.00,NE,45,0.0,3.0,34,0.00,,,0.00,meteohub,2013-03-26 04:29:00,
2013-03-25 23:33:00,46.2,19.4,-100.00,NNE,23,0.0,3.0,34,0.00,,,0.00,meteohub,2013-03-26 04:33:00,
2013-03-25 23:37:00,46.2,19.4,-100.00,NNE,23,1.0,1.0,34,0.00,,,0.00,meteohub,2013-03-26 04:37:00,
2013-03-25 23:39:00,46.2,19.4,-100.00,NNE,23,1.0,1.0,34,0.00,,,0.00,meteohub,2013-03-26 04:39:00,
2013-03-25 23:41:00,46.2,19.4,-100.00,NE,45,0.0,0.0,34,0.00,,,0.00,meteohub,2013-03-26 04:41:00,
2013-03-25 23:43:00,46.2,19.4,-100.00,NE,45,2.0,0.0,34,0.00,,,0.00,meteohub,2013-03-26 04:43:00,
2013-03-25 23:45:00,46.0,19.9,-100.00,NE,45,0.0,2.0,35,0.00,,,0.00,meteohub,2013-03-26 04:45:00,
2013-03-25 23:47:00,46.0,19.9,-100.00,NE,45,0.0,2.0,35,0.00,,,0.00,meteohub,2013-03-26 04:47:00,
2013-03-25 23:51:00,46.0,19.9,-100.00,NE,45,2.0,2.0,35,0.00,,,0.00,meteohub,2013-03-26 04:51:00,
2013-03-25 23:53:00,45.7,19.6,-100.00,NE,45,0.0,2.0,35,0.00,,,0.00,meteohub,2013-03-26 04:53:00,
2013-03-25 23:57:00,45.7,19.6,-100.00,NNE,23,0.0,2.0,35,0.00,,,0.00,meteohub,2013-03-26 04:57:00,
2013-03-25 23:59:00,45.7,19.6,-100.00,NE,45,0.0,2.0,35,0.00,,,0.00,meteohub,2013-03-26 04:59:00,